Weather History for Windom, MN

Change the Weather History Date:

Friday, August 15, 2014

  Actual Average Record
Temperature  
Mean Temperature 72 °F -  
Max Temperature 78 °F 81 °F 96 °F (1972)
Min Temperature 66 °F 59 °F 45 °F (1979)
Cooling Degree Days 7    
Growing Degree Days 22 (Base 50)    
Moisture  
Dew Point 65 °F    
Average Humidity 83    
Maximum Humidity 94    
Minimum Humidity 65    
Precipitation  
Precipitation 0.12 in - - ()
Sea Level Pressure  
Sea Level Pressure 29.94 in    
Wind  
Wind Speed 7 mph (SSE)    
Max Wind Speed 13 mph    
Max Gust Speed 18 mph    
Visibility 10 miles    
Events Rain , Thunderstorm    
Averages and records for this station are not official NWS values.
T = Trace of Precipitation, MM = Missing Value Source: NWS Daily Summary

Daily Weather History Graph

Daily Weather History Graph

Search for Another Location

Airport:

Trip Planner

Search our weather history database for the weather conditions in past years. The results will help you decide how hot, cold, wet, or windy it might be!

Date:

Astronomy

Aug. 15, 2014 Rise Set
Actual Time 6:24 AM CDT 8:24 PM CDT
Civil Twilight 5:53 AM CDT 8:55 PM CDT
Nautical Twilight 5:14 AM CDT 9:33 PM CDT
Astronomical Twilight 4:32 AM CDT 10:15 PM CDT
Moon 11:13 PM CDT (8/15) 12:21 PM CDT (8/15)
Length of Visible Light 15h 02m
Length of Day
13h 59m
Waning Gibbous, 69% of the Moon is Illuminated
Aug 15
Waning Gibbous
Aug 17
Last Quarter
Aug 25
New
Sep 2
First Quarter
Sep 8
Full

Hourly Weather History & Observations

Time (CDT) Temp. Dew Point Humidity Pressure Visibility Wind Dir Wind Speed Gust Speed Precip Events Conditions
12:14 AM 66.2 °F 62.6 °F 88% 30.00 in 10.0 mi ESE 5.8 mph - N/A   Clear
12:33 AM 66.2 °F 62.6 °F 88% 30.00 in 10.0 mi SE 4.6 mph - N/A Thunderstorm Scattered Clouds
12:53 AM 66.2 °F 62.6 °F 88% 29.99 in 10.0 mi SE 4.6 mph - N/A   Scattered Clouds
1:14 AM 68.0 °F 62.6 °F 83% 29.99 in 10.0 mi Calm Calm - N/A   Scattered Clouds
1:33 AM 68.0 °F 62.6 °F 83% 29.99 in 10.0 mi SSE 5.8 mph - N/A   Mostly Cloudy
1:53 AM 68.0 °F 62.6 °F 83% 29.98 in 10.0 mi SSE 6.9 mph - N/A Thunderstorm Mostly Cloudy
2:14 AM 68.0 °F 64.4 °F 88% 29.98 in 10.0 mi South 10.4 mph - N/A Rain , Thunderstorm Light Thunderstorms and Rain
2:33 AM 68.0 °F 64.4 °F 88% 29.98 in 10.0 mi SSE 6.9 mph - N/A Rain Light Rain
2:53 AM 68.0 °F 64.4 °F 88% 29.98 in 10.0 mi SSE 9.2 mph - N/A Rain Rain
3:14 AM 66.2 °F 64.4 °F 94% 29.99 in 10.0 mi SSE 3.5 mph - 0.01 in Rain Light Rain
3:33 AM 66.2 °F 64.4 °F 94% 29.99 in 10.0 mi South 3.5 mph - 0.01 in Rain Light Rain
3:53 AM 66.2 °F 64.4 °F 94% 30.00 in 7.0 mi Calm Calm - 0.02 in Rain Light Rain
4:13 AM 66.2 °F 64.4 °F 94% 29.99 in 10.0 mi ESE 4.6 mph - N/A Rain Light Rain
4:34 AM 66.2 °F 64.4 °F 94% 29.99 in 10.0 mi ESE 4.6 mph - N/A   Mostly Cloudy
4:53 AM 66.2 °F 64.4 °F 94% 29.98 in 10.0 mi ESE 6.9 mph - N/A Rain , Thunderstorm Light Thunderstorms and Rain
5:13 AM 66.2 °F 64.4 °F 94% 29.98 in 10.0 mi ESE 5.8 mph - N/A   Overcast
5:33 AM 66.2 °F 64.4 °F 94% 29.97 in 10.0 mi ESE 8.1 mph - N/A   Overcast
5:53 AM 66.2 °F 64.4 °F 94% 29.95 in 10.0 mi ESE 8.1 mph - N/A   Overcast
6:14 AM 66.2 °F 64.4 °F 94% 29.96 in 10.0 mi South 5.8 mph - N/A   Mostly Cloudy
6:33 AM 66.2 °F 64.4 °F 94% 29.97 in 10.0 mi Calm Calm - N/A   Mostly Cloudy
6:53 AM 66.2 °F 64.4 °F 94% 29.98 in 10.0 mi South 5.8 mph - N/A Thunderstorm Thunderstorm
7:14 AM 66.2 °F 64.4 °F 94% 29.98 in 10.0 mi SSE 6.9 mph - N/A   Overcast
7:33 AM 66.2 °F 64.4 °F 94% 29.97 in 10.0 mi South 9.2 mph - N/A Rain Light Rain
7:53 AM 66.2 °F 64.4 °F 94% 29.98 in 10.0 mi South 6.9 mph - 0.03 in Rain Light Rain
8:14 AM 66.2 °F 62.6 °F 88% 29.96 in 10.0 mi South 9.2 mph - N/A Rain Light Rain
8:33 AM 66.2 °F 62.6 °F 88% 29.97 in 10.0 mi South 4.6 mph - N/A Rain Light Rain
9:14 AM 66.2 °F 62.6 °F 88% 29.97 in 10.0 mi South 5.8 mph - 0.02 in Rain Rain
9:33 AM 66.2 °F 62.6 °F 88% 29.97 in 10.0 mi South 8.1 mph - 0.03 in Rain Light Rain
9:53 AM 66.2 °F 64.4 °F 94% 29.95 in 10.0 mi South 9.2 mph - 0.04 in Rain Light Rain
10:14 AM 66.2 °F 64.4 °F 94% 29.94 in 10.0 mi South 11.5 mph 18.4 mph 0.01 in Rain Light Rain
10:33 AM 66.2 °F 64.4 °F 94% 29.93 in 10.0 mi SSE 10.4 mph 18.4 mph 0.02 in Rain Light Rain
10:54 AM 66.2 °F 64.4 °F 94% 29.92 in 10.0 mi SSE 11.5 mph 17.3 mph 0.03 in Rain Light Rain
11:13 AM 68.0 °F 64.4 °F 88% 29.92 in 10.0 mi SSE 12.7 mph 17.3 mph N/A   Clear
11:33 AM 69.8 °F 64.4 °F 83% 29.91 in 10.0 mi SE 10.4 mph - N/A   Clear
11:54 AM 71.6 °F 66.2 °F 83% 29.93 in 10.0 mi SSE 8.1 mph - N/A   Clear
12:13 PM 71.6 °F 66.2 °F 83% 29.93 in 10.0 mi SSE 10.4 mph - N/A   Clear
12:33 PM 73.4 °F 66.2 °F 78% 29.92 in 10.0 mi SSE 11.5 mph 17.3 mph N/A   Scattered Clouds
12:54 PM 73.4 °F 66.2 °F 78% 29.93 in 10.0 mi SSE 10.4 mph - N/A   Scattered Clouds
1:13 PM 75.2 °F 66.2 °F 73% 29.94 in 10.0 mi SSE 9.2 mph - N/A   Scattered Clouds
1:33 PM 75.2 °F 66.2 °F 73% 29.94 in 10.0 mi SSE 10.4 mph - N/A   Mostly Cloudy
1:53 PM 75.2 °F 66.2 °F 73% 29.94 in 10.0 mi SSE 6.9 mph - N/A   Overcast
2:13 PM 77.0 °F 66.2 °F 69% 29.94 in 10.0 mi South 8.1 mph - N/A   Mostly Cloudy
2:34 PM 78.8 °F 68.0 °F 69% 29.93 in 10.0 mi South 9.2 mph - N/A   Scattered Clouds
2:53 PM 77.0 °F 68.0 °F 74% 29.92 in 10.0 mi SSE 6.9 mph - N/A   Mostly Cloudy
3:13 PM 77.0 °F 66.2 °F 69% 29.92 in 10.0 mi SSE 8.1 mph - N/A   Mostly Cloudy
3:34 PM 78.8 °F 66.2 °F 65% 29.92 in 10.0 mi South 11.5 mph 16.1 mph N/A   Mostly Cloudy
3:53 PM 78.8 °F 66.2 °F 65% 29.92 in 10.0 mi SSE 9.2 mph - N/A   Scattered Clouds
4:13 PM 78.8 °F 66.2 °F 65% 29.92 in 10.0 mi South 6.9 mph - N/A   Clear
4:34 PM 78.8 °F 66.2 °F 65% 29.92 in 10.0 mi South 11.5 mph 16.1 mph N/A   Clear
4:53 PM 77.0 °F 66.2 °F 69% 29.92 in 10.0 mi SSE 8.1 mph - N/A   Mostly Cloudy
5:13 PM 78.8 °F 66.2 °F 65% 29.91 in 10.0 mi SSE 9.2 mph - N/A   Overcast
5:34 PM 77.0 °F 66.2 °F 69% 29.91 in 10.0 mi SSE 5.8 mph - N/A   Mostly Cloudy
5:53 PM 77.0 °F 66.2 °F 69% 29.91 in 10.0 mi SSE 6.9 mph - N/A   Scattered Clouds
6:13 PM 78.8 °F 66.2 °F 65% 29.91 in 10.0 mi SSE 6.9 mph - N/A   Clear
6:33 PM 77.0 °F 66.2 °F 69% 29.91 in 10.0 mi SSE 6.9 mph - N/A   Scattered Clouds
6:53 PM 77.0 °F 66.2 °F 69% 29.90 in 10.0 mi South 8.1 mph - N/A   Scattered Clouds
7:14 PM 75.2 °F 66.2 °F 73% 29.90 in 10.0 mi SSE 6.9 mph - N/A   Mostly Cloudy
7:33 PM 75.2 °F 66.2 °F 73% 29.90 in 10.0 mi SSE 6.9 mph - N/A   Overcast
7:53 PM 75.2 °F 66.2 °F 73% 29.89 in 10.0 mi SSE 6.9 mph - N/A   Overcast
8:14 PM 73.4 °F 66.2 °F 78% 29.89 in 10.0 mi SSE 8.1 mph - N/A   Overcast
8:33 PM 73.4 °F 66.2 °F 78% 29.89 in 10.0 mi SSE 8.1 mph - N/A   Scattered Clouds
8:53 PM 71.6 °F 66.2 °F 83% 29.90 in 10.0 mi SSE 8.1 mph - N/A   Mostly Cloudy
9:14 PM 71.6 °F 66.2 °F 83% 29.90 in 10.0 mi SSE 6.9 mph - N/A   Scattered Clouds
9:33 PM 69.8 °F 66.2 °F 88% 29.90 in 10.0 mi SSE 8.1 mph - N/A   Clear
9:53 PM 69.8 °F 66.2 °F 88% 29.91 in 10.0 mi SSE 6.9 mph - N/A   Clear
10:14 PM 69.8 °F 66.2 °F 88% 29.91 in 10.0 mi SSE 8.1 mph - N/A   Clear
10:33 PM 69.8 °F 66.2 °F 88% 29.91 in 10.0 mi SSE 4.6 mph - N/A   Clear
10:53 PM 68.0 °F 66.2 °F 94% 29.90 in 10.0 mi South 6.9 mph - N/A   Clear
11:14 PM 68.0 °F 66.2 °F 94% 29.90 in 10.0 mi SSE 6.9 mph - N/A   Clear
11:33 PM 68.0 °F 64.4 °F 88% 29.90 in 10.0 mi SSE 5.8 mph - N/A   Clear